When you browse on this site, cookies collect data to enhance your experience and personalize the content and advertising you see.
Visit our Privacy Policy to learn more. By continuing to use the site, you agree to this use of cookies and data.
  • In Latvia
  • List of Countries
  • For 7 days
  • Water Temperature
  • Satellite Maps
  • Weather Map
  • Weather Widgets
  • user-avatar
    Login

    Hourly Weather Jutiapa

    Today, 18 June, Tuesday

    Time Temperature Precipitation Wind Pressure Humidity
    00:00 +21°C° 0 mm 1 mps 672 mmHg 93%
    01:00 +21°C° 0 mm 1 mps 672 mmHg 93%
    02:00 +21°C° 0 mm 1 mps 671 mmHg 94%
    03:00 +21°C° 0 mm 1 mps 671 mmHg 94%
    04:00 +21°C° 0 mm 1 mps 671 mmHg 94%
    05:00 +21°C° 0 mm 1 mps 671 mmHg 95%
    06:00 +21°C° 0 mm 1 mps 672 mmHg 96%
    07:00 +23°C° 0 mm 1 mps 672 mmHg 90%
    08:00 +24°C° 0 mm 2 mps 673 mmHg 85%
    09:00 +26°C° 0 mm 2 mps 674 mmHg 80%
    10:00 +27°C° 0 mm 2 mps 674 mmHg 75%
    11:00 +28°C° 0 mm 2 mps 674 mmHg 69%
    12:00 +29°C° 0 mm 2 mps 674 mmHg 64%
    13:00 +30°C° 0.1 mm 2 mps 673 mmHg 63%
    14:00 +30°C° 0.1 mm 1 mps 673 mmHg 63%
    15:00 +30°C° 0.1 mm 1 mps 672 mmHg 62%
    16:00 +28°C° 0 mm 1 mps 672 mmHg 70%
    17:00 +27°C° 0 mm 1 mps 672 mmHg 78%
    18:00 +26°C° 0 mm 1 mps 671 mmHg 85%
    19:00 +25°C° 0.2 mm 1 mps 672 mmHg 87%
    20:00 +24°C° 0.2 mm 1 mps 672 mmHg 90%
    21:00 +23°C° 0.2 mm 1 mps 672 mmHg 92%
    22:00 +22°C° 0.1 mm 1 mps 672 mmHg 93%
    23:00 +22°C° 0.1 mm 1 mps 672 mmHg 94%

    Tomorrow, 19 June, Wednesday

    Time Temperature Precipitation Wind Pressure Humidity
    00:00 +22°C° 0.1 mm 1 mps 672 mmHg 95%
    01:00 +21°C° 0 mm 1 mps 672 mmHg 95%
    02:00 +20°C° 0 mm 2 mps 671 mmHg 95%
    03:00 +20°C° 0 mm 2 mps 671 mmHg 96%
    04:00 +20°C° 0 mm 2 mps 671 mmHg 95%
    05:00 +20°C° 0 mm 2 mps 671 mmHg 95%
    06:00 +20°C° 0 mm 2 mps 671 mmHg 95%
    07:00 +23°C° 0 mm 2 mps 672 mmHg 89%
    08:00 +25°C° 0 mm 1 mps 673 mmHg 83%
    09:00 +27°C° 0 mm 1 mps 673 mmHg 77%
    10:00 +28°C° 0.1 mm 1 mps 673 mmHg 73%
    11:00 +29°C° 0.1 mm 1 mps 673 mmHg 70%
    12:00 +30°C° 0.1 mm 1 mps 673 mmHg 66%
    13:00 +30°C° 0.5 mm 1 mps 673 mmHg 67%
    14:00 +30°C° 0.5 mm 1 mps 672 mmHg 68%
    15:00 +29°C° 0.5 mm 1 mps 672 mmHg 69%
    16:00 +28°C° 1 mm 1 mps 671 mmHg 76%
    17:00 +27°C° 1 mm 1 mps 671 mmHg 83%
    18:00 +23°C° 1 mm 0 mps 671 mmHg 91%
    19:00 +22°C° 0.4 mm 0 mps 671 mmHg 92%
    20:00 +24°C° 0.4 mm 1 mps 671 mmHg 93%
    21:00 +23°C° 0.4 mm 1 mps 672 mmHg 94%
    22:00 +22°C° 1 mm 1 mps 672 mmHg 95%
    23:00 +22°C° 1 mm 1 mps 672 mmHg 96%

    Day after tomorrow, 20 June, Thursday

    Time Temperature Precipitation Wind Pressure Humidity
    00:00 +22°C° 1 mm 1 mps 672 mmHg 97%
    01:00 +22°C° 0.9 mm 1 mps 671 mmHg 97%
    02:00 +22°C° 0.9 mm 1 mps 671 mmHg 96%
    03:00 +22°C° 0.9 mm 1 mps 671 mmHg 96%
    04:00 +21°C° 1.2 mm 1 mps 671 mmHg 96%
    05:00 +21°C° 1.2 mm 1 mps 671 mmHg 96%
    06:00 +21°C° 1.2 mm 1 mps 671 mmHg 96%
    07:00 +23°C° 0.3 mm 1 mps 672 mmHg 92%
    08:00 +24°C° 0.3 mm 1 mps 673 mmHg 88%
    09:00 +26°C° 0.3 mm 1 mps 673 mmHg 84%
    10:00 +27°C° 0.5 mm 1 mps 673 mmHg 80%
    11:00 +28°C° 0.5 mm 2 mps 673 mmHg 76%
    12:00 +29°C° 0.5 mm 2 mps 673 mmHg 71%
    13:00 +29°C° 0.4 mm 2 mps 673 mmHg 71%
    14:00 +29°C° 0.4 mm 1 mps 672 mmHg 72%
    15:00 +29°C° 0.4 mm 1 mps 672 mmHg 72%
    16:00 +28°C° 0.9 mm 1 mps 672 mmHg 78%
    17:00 +26°C° 0.9 mm 1 mps 671 mmHg 84%
    18:00 +25°C° 0.9 mm 1 mps 671 mmHg 91%
    19:00 +24°C° 0.6 mm 1 mps 672 mmHg 92%
    20:00 +23°C° 0.6 mm 1 mps 672 mmHg 92%
    21:00 +22°C° 0.6 mm 1 mps 672 mmHg 93%
    22:00 +22°C° 0.1 mm 1 mps 672 mmHg 94%
    23:00 +22°C° 0.1 mm 1 mps 672 mmHg 94%

    21 June, Friday

    Time Temperature Precipitation Wind Pressure Humidity
    00:00 +21°C° 0.1 mm 1 mps 672 mmHg 94%
    01:00 +21°C° 0 mm 1 mps 672 mmHg 95%
    02:00 +21°C° 0 mm 1 mps 671 mmHg 95%
    03:00 +21°C° 0 mm 1 mps 671 mmHg 96%
    04:00 +21°C° 0 mm 1 mps 671 mmHg 96%
    05:00 +21°C° 0 mm 1 mps 671 mmHg 96%
    06:00 +21°C° 0 mm 1 mps 671 mmHg 96%
    07:00 +21°C° 0 mm 2 mps 672 mmHg 91%
    08:00 +24°C° 0 mm 2 mps 673 mmHg 86%
    09:00 +25°C° 0 mm 2 mps 674 mmHg 82%
    10:00 +26°C° 0.4 mm 2 mps 674 mmHg 79%
    11:00 +27°C° 0.4 mm 2 mps 673 mmHg 76%
    12:00 +28°C° 0.4 mm 2 mps 673 mmHg 73%
    13:00 +28°C° 0.9 mm 2 mps 673 mmHg 74%
    14:00 +28°C° 0.9 mm 2 mps 672 mmHg 74%
    15:00 +29°C° 0.9 mm 1 mps 672 mmHg 75%
    16:00 +27°C° 2.1 mm 1 mps 672 mmHg 80%
    17:00 +26°C° 2.1 mm 1 mps 672 mmHg 86%
    18:00 +22°C° 2.1 mm 0 mps 672 mmHg 92%
    19:00 +24°C° 0.6 mm 1 mps 672 mmHg 92%
    20:00 +23°C° 0.6 mm 1 mps 672 mmHg 93%
    21:00 +22°C° 0.6 mm 1 mps 673 mmHg 93%
    22:00 +22°C° 1.7 mm 1 mps 673 mmHg 95%
    23:00 +22°C° 1.7 mm 1 mps 673 mmHg 96%

    22 June, Saturday

    Time Temperature Precipitation Wind Pressure Humidity
    00:00 +21°C° 1.7 mm 1 mps 673 mmHg 97%
    01:00 +21°C° 1.7 mm 1 mps 672 mmHg 97%
    02:00 +21°C° 1.7 mm 1 mps 672 mmHg 98%
    03:00 +21°C° 1.7 mm 1 mps 671 mmHg 98%
    04:00 +21°C° 0 mm 1 mps 672 mmHg 98%
    05:00 +21°C° 0 mm 1 mps 672 mmHg 97%
    06:00 +19°C° 0 mm 0 mps 672 mmHg 96%
    07:00 +23°C° 0.2 mm 1 mps 673 mmHg 93%
    08:00 +24°C° 0.2 mm 1 mps 673 mmHg 89%
    09:00 +25°C° 0.2 mm 1 mps 674 mmHg 86%
    10:00 +26°C° 0.8 mm 1 mps 674 mmHg 83%
    11:00 +27°C° 0.8 mm 1 mps 674 mmHg 79%
    12:00 +28°C° 0.8 mm 1 mps 673 mmHg 76%
    13:00 +28°C° 1.6 mm 1 mps 673 mmHg 77%
    14:00 +28°C° 1.6 mm 1 mps 672 mmHg 77%
    15:00 +28°C° 1.6 mm 1 mps 672 mmHg 78%
    16:00 +24°C° 1.5 mm 0 mps 672 mmHg 83%
    17:00 +23°C° 1.5 mm 0 mps 672 mmHg 87%
    18:00 +22°C° 1.5 mm 0 mps 672 mmHg 92%
    19:00 +23°C° 1.2 mm 1 mps 672 mmHg 93%
    20:00 +23°C° 1.2 mm 1 mps 672 mmHg 94%
    21:00 +22°C° 1.2 mm 1 mps 673 mmHg 95%
    22:00 +22°C° 0 mm 1 mps 672 mmHg 95%
    23:00 +22°C° 0 mm 1 mps 672 mmHg 94%

    23 June, Sunday

    Time Temperature Precipitation Wind Pressure Humidity
    00:00 +20°C° 0 mm 2 mps 672 mmHg 94%
    01:00 +20°C° 0 mm 2 mps 672 mmHg 94%
    02:00 +20°C° 0 mm 2 mps 671 mmHg 95%
    03:00 +20°C° 0 mm 2 mps 671 mmHg 95%
    04:00 +19°C° 0 mm 2 mps 671 mmHg 95%
    05:00 +19°C° 0 mm 2 mps 671 mmHg 96%
    06:00 +19°C° 0 mm 2 mps 671 mmHg 96%
    07:00 +21°C° 0 mm 2 mps 672 mmHg 90%
    08:00 +24°C° 0 mm 2 mps 673 mmHg 84%
    09:00 +26°C° 0 mm 2 mps 674 mmHg 78%
    10:00 +27°C° 0 mm 2 mps 673 mmHg 73%
    11:00 +28°C° 0 mm 2 mps 673 mmHg 68%
    12:00 +29°C° 0 mm 3 mps 673 mmHg 63%
    13:00 +29°C° 0.3 mm 2 mps 673 mmHg 66%
    14:00 +28°C° 0.3 mm 2 mps 672 mmHg 69%
    15:00 +28°C° 0.3 mm 2 mps 672 mmHg 72%
    16:00 +27°C° 0.8 mm 2 mps 672 mmHg 79%
    17:00 +25°C° 0.8 mm 1 mps 671 mmHg 85%
    18:00 +24°C° 0.8 mm 1 mps 671 mmHg 91%
    19:00 +23°C° 0.4 mm 1 mps 671 mmHg 91%
    20:00 +22°C° 0.4 mm 1 mps 672 mmHg 91%
    21:00 +21°C° 0.4 mm 1 mps 672 mmHg 92%
    22:00 +21°C° 0.1 mm 1 mps 672 mmHg 91%
    23:00 +21°C° 0.1 mm 1 mps 672 mmHg 91%
    Show more